OPS 4682 DEB, 27545

Orbit data source: Space-Track

OPS 4682 DEB, 27545 is space debris in LEO originally from a launch on Sat, 03 Apr 1965 UTC launched from the Air Force Western Test Range (AFWTR). Debris objects in space refer to the collection of defunct objects orbiting the Earth. Examples of debris include non-operational satellites, rocket bodies, and fragments generated from explosions, collisions, or faulty payload assembly.

Loading next visibility...
Identifier
27545, 1965-027BH
Orbit
LEO
Country
Flag of USUS
Related business
Manufacturer
Unknown
Mission
Spacecraft
Bus & Motor
Unknown
Mass
Unknown
Launch date (UTC)
1965-04-03 (61 years ago)
Launch vehicle
Unknown
Launch site
Air Force Western Test Range (AFWTR)
Object type
Payload
Rocket body
Debris
Shape & HBR
Unknown shape, 0.1 m
Radar Cross Section
Small (<0.1 m²)

Expand to show TLE details & history
Last TLE update: 4 days ago

TLE from 4 days ago
0 OPS 4682 DEB
1 27545U 65027BH  25349.30868608  .00000064  00000-0  20256-3 0  9993
2 27545  90.2425   3.2029 0022391   4.4115  25.0755 12.95050651131457
Epoch: 2025-12-15T07:24Z
TLE epoch observation values (Epoch: 2025-12-15T07:24:30.477Z)
Latitude
29.64055°
Longitude
167.72951°
Altitude
1,269.708 km
Speed
7.231 km/s
True Right ascension
00h 12m 15s
True Declination
29° 30' 10"
Sunlit
Object was in daylight at epoch
Visualization orbit readout
Latitude
Unknown
Longitude
Unknown
Altitude
Unknown
Speed
Unknown
Apparent Right ascension
Unknown
Apparent Declination
Unknown
Sunlit
N/A
Visualization observer readout
Local Sidereal Time
07:09:02
Azimuth
Unknown
Elevation
Unknown
Doppler factor
Unknown
Orbital elements
Apogee altitude
1,295.819 km
Perigee altitude
1,261.53 km
Semi-major axis
7,656.812 km
Eccentricity
0.00224
Inclination
90.2425°
RAAN
3.2029°
Arg. of periapsis
4.4115°
True anomaly
25.18452°
Mean anomaly
25.0755°
Eccentric anomaly
25.12998°
Mean motion
3.23945 °/min
Orbital period
111.13 mins
BSTAR
0.00020256
Loading maneuver chart data...
Computing Atmospheric mass density...
Loading historical data...
Loading historical data...
Loading historical data...
Loading historical data...
Loading historical data...
Loading historical data...
Loading historical data...

Documentation

Showing up to 5 results
|